Atwater, CA

12:49 PM PST on December 12, 2017 (GMT -0800)
Castle

Weather History for KMER - April, 2014

Change the Weather History Date:

Saturday, April 19, 2014

  Actual Average (KMCE) Record (KMCE)
Temperature  
Mean Temperature 65 °F -  
Max Temperature 80 °F 73 °F 92 °F (2009)
Min Temperature 50 °F 44 °F 35 °F (1955)
Growing Degree Days 15 (Base 50)    
Moisture  
Dew Point 45 °F    
Average Humidity 60    
Maximum Humidity 94    
Minimum Humidity 15    
Precipitation  
Precipitation 0.00 in - - ()
Sea Level Pressure  
Sea Level Pressure 29.98 in    
Wind  
Wind Speed 5 mph (North)    
Max Wind Speed 17 mph    
Max Gust Speed 23 mph    
Visibility 10 miles    
Events      
Averages and records for this station are not official NWS values.
T = Trace of Precipitation, MM = Missing Value Source: NWS Daily Summary

Daily Weather History Graph

Daily Weather History Graph

Search for Another Location

Airport or City:

Trip Planner

Search our weather history database for the weather conditions in past years. The results will help you decide how hot, cold, wet, or windy it might be!

Date:

Astronomy

Apr. 19, 2014 Rise Set
Actual Time 6:22 AM PDT 7:41 PM PDT
Civil Twilight 5:54 AM PDT 8:08 PM PDT
Nautical Twilight 5:22 AM PDT 8:41 PM PDT
Astronomical Twilight 4:48 AM PDT 9:15 PM PDT
Moon No Moon Rise 9:48 AM PDT (4/19)
Length of Visible Light 14h 13m
Length of Day
13h 19m
Waning Gibbous, 77% of the Moon is Illuminated
Apr 19
Waning Gibbous
Apr 22
Last Quarter
Apr 28
New
May 6
First Quarter
May 14
Full

Hourly Weather History & Observations

Time (PDT) Temp. Dew Point Humidity Pressure Visibility Wind Dir Wind Speed Gust Speed Precip Events Conditions
12:15 AM 62.6 °F 46.4 °F 55% 29.88 in 10.0 mi Calm Calm - N/A   Clear
12:35 AM 62.6 °F 46.4 °F 55% 29.88 in 10.0 mi Calm Calm - N/A   Clear
12:55 AM 60.8 °F 48.2 °F 63% 29.89 in 10.0 mi Calm Calm - N/A   Clear
1:15 AM 60.8 °F 50.0 °F 68% 29.89 in 10.0 mi Calm Calm - N/A   Clear
1:35 AM 59.0 °F 50.0 °F 72% 29.89 in 10.0 mi Calm Calm - N/A   Clear
1:55 AM 55.4 °F 48.2 °F 77% 29.88 in 10.0 mi Calm Calm - N/A   Clear
2:15 AM 53.6 °F 51.8 °F 94% 29.89 in 10.0 mi Calm Calm - N/A   Clear
2:35 AM 57.2 °F 51.8 °F 82% 29.88 in 10.0 mi Calm Calm - N/A   Clear
2:55 AM 55.4 °F 51.8 °F 88% 29.89 in 10.0 mi NNW 5.8 mph - N/A   Clear
3:15 AM 55.4 °F 50.0 °F 82% 29.90 in 10.0 mi NNW 4.6 mph - N/A   Clear
3:35 AM 55.4 °F 50.0 °F 82% 29.90 in 10.0 mi North 5.8 mph - N/A   Clear
3:55 AM 55.4 °F 46.4 °F 72% 29.90 in 10.0 mi Calm Calm - N/A   Clear
4:15 AM 55.4 °F 46.4 °F 72% 29.91 in 10.0 mi NNW 6.9 mph - N/A   Clear
4:35 AM 55.4 °F 44.6 °F 67% 29.91 in 10.0 mi North 6.9 mph - N/A   Clear
4:55 AM 53.6 °F 44.6 °F 72% 29.92 in 10.0 mi North 5.8 mph - N/A   Clear
5:15 AM 53.6 °F 46.4 °F 77% 29.92 in 10.0 mi NNW 5.8 mph - N/A   Clear
5:35 AM 53.6 °F 46.4 °F 77% 29.93 in 10.0 mi North 6.9 mph - N/A   Clear
5:55 AM 53.6 °F 46.4 °F 77% 29.93 in 10.0 mi NNW 6.9 mph - N/A   Clear
6:45 AM 50.0 °F 46.4 °F 87% 29.95 in 10.0 mi NNW 9.2 mph - N/A   Clear
7:45 AM 55.4 °F 46.4 °F 72% 29.99 in 10.0 mi North 8.1 mph - N/A   Clear
8:45 AM 62.6 °F 44.6 °F 52% 30.00 in 10.0 mi North 4.6 mph - N/A   Clear
9:45 AM 66.2 °F 42.8 °F 43% 30.02 in 10.0 mi North 5.8 mph - N/A   Clear
10:45 AM 71.6 °F 39.2 °F 31% 30.02 in 10.0 mi NNW 9.2 mph - N/A   Clear
11:45 AM 73.4 °F 33.8 °F 23% 30.03 in 10.0 mi NNW 13.8 mph - N/A   Clear
1:45 PM 80.6 °F 28.4 °F 15% 30.02 in 10.0 mi NNW 17.3 mph 23.0 mph N/A   Clear
2:45 PM 80.6 °F 32.0 °F 17% 30.02 in 10.0 mi NNW 15.0 mph - N/A   Clear
3:45 PM 80.6 °F 32.0 °F 17% 30.01 in 10.0 mi North 12.7 mph - N/A   Clear
5:45 PM 80.6 °F 32.0 °F 17% 30.00 in 10.0 mi North 15.0 mph - N/A   Clear
6:45 PM 75.2 °F 39.2 °F 27% 30.01 in 10.0 mi North 15.0 mph - N/A   Clear
7:45 PM 66.2 °F 44.6 °F 46% 30.02 in 10.0 mi North 9.2 mph - N/A   Clear
8:15 PM 64.4 °F 44.6 °F 49% 30.03 in 10.0 mi North 10.4 mph - N/A   Clear
8:35 PM 62.6 °F 46.4 °F 55% 30.04 in 10.0 mi North 9.2 mph - N/A   Clear
8:45 PM 62.6 °F 39.2 °F 42% 30.04 in 10.0 mi North 8.1 mph - N/A   Clear
8:55 PM 60.8 °F 46.4 °F 59% 30.05 in 10.0 mi North 10.4 mph - N/A   Clear
9:15 PM 62.6 °F 48.2 °F 59% 30.05 in 10.0 mi NNE 11.5 mph - N/A   Clear
9:35 PM 62.6 °F 46.4 °F 55% 30.06 in 10.0 mi North 11.5 mph - N/A   Clear
9:55 PM 62.6 °F 46.4 °F 55% 30.06 in 10.0 mi North 12.7 mph - N/A   Clear
10:15 PM 60.8 °F 46.4 °F 59% 30.07 in 10.0 mi NNE 12.7 mph - N/A   Clear
10:35 PM 60.8 °F 48.2 °F 63% 30.08 in 10.0 mi NNE 8.1 mph - N/A   Clear
10:55 PM 60.8 °F 48.2 °F 63% 30.08 in 10.0 mi NNE 8.1 mph - N/A   Clear
11:15 PM 59.0 °F 48.2 °F 67% 30.08 in 10.0 mi NNE 9.2 mph - N/A   Clear
11:35 PM 57.2 °F 50.0 °F 77% 30.08 in 10.0 mi NNE 8.1 mph - N/A   Clear
11:55 PM 57.2 °F 50.0 °F 77% 30.09 in 10.0 mi NNE 8.1 mph - N/A   Clear